Time,TemperatureF,DewpointF,PressureIn,WindDirection,WindDirectionDegrees,WindSpeedMPH,WindSpeedGustMPH,Humidity,HourlyPrecipIn,Conditions,Clouds,dailyrainin,SoftwareType,DateUTC
2013-07-28 00:00:00,62.0,48.0,30.23,WSW,243,4.0,10.0,59,0.00,,,0.00,,2013-07-28 08:00:00,
2013-07-28 00:33:00,62.0,48.0,30.23,WSW,243,4.0,10.0,59,0.00,,,0.00,,2013-07-28 08:33:00,
2013-07-28 00:43:00,62.0,48.0,30.23,WSW,243,4.0,10.0,59,0.00,,,0.00,,2013-07-28 08:43:00,
2013-07-28 00:53:00,62.0,48.0,30.23,WSW,243,4.0,10.0,59,0.00,,,0.00,,2013-07-28 08:53:00,
2013-07-28 01:00:00,63.0,47.0,30.23,WSW,244,5.0,11.0,55,0.00,,,0.00,,2013-07-28 09:00:00,
2013-07-28 01:43:00,63.0,47.0,30.23,WSW,244,5.0,11.0,55,0.00,,,0.00,,2013-07-28 09:43:00,
2013-07-28 01:53:00,63.0,47.0,30.23,WSW,244,5.0,11.0,55,0.00,,,0.00,,2013-07-28 09:53:00,
2013-07-28 02:00:00,64.0,47.0,30.21,WSW,248,4.0,9.0,53,0.00,,,0.00,,2013-07-28 10:00:00,
2013-07-28 02:42:00,64.0,47.0,30.21,WSW,248,4.0,9.0,53,0.00,,,0.00,,2013-07-28 10:42:00,
2013-07-28 02:53:00,64.0,47.0,30.21,WSW,248,4.0,9.0,53,0.00,,,0.00,,2013-07-28 10:53:00,
2013-07-28 03:00:00,62.0,46.0,30.21,West,269,3.0,11.0,55,0.00,,,0.00,,2013-07-28 11:00:00,
2013-07-28 03:33:00,62.0,46.0,30.21,West,269,3.0,11.0,55,0.00,,,0.00,,2013-07-28 11:33:00,
2013-07-28 03:43:00,62.0,46.0,30.21,West,269,3.0,11.0,55,0.00,,,0.00,,2013-07-28 11:43:00,
2013-07-28 03:54:00,62.0,46.0,30.21,West,269,3.0,11.0,55,0.00,,,0.00,,2013-07-28 11:54:00,
2013-07-28 04:00:00,60.0,47.0,30.20,West,281,3.0,8.0,61,0.00,,,0.00,,2013-07-28 12:00:00,
2013-07-28 04:33:00,60.0,47.0,30.20,West,281,3.0,8.0,61,0.00,,,0.00,,2013-07-28 12:33:00,
2013-07-28 04:43:00,60.0,47.0,30.20,West,281,3.0,8.0,61,0.00,,,0.00,,2013-07-28 12:43:00,
2013-07-28 04:53:00,60.0,47.0,30.20,West,281,3.0,8.0,61,0.00,,,0.00,,2013-07-28 12:53:00,
2013-07-28 05:00:00,59.0,47.0,30.20,WNW,283,3.0,5.0,64,0.00,,,0.00,,2013-07-28 13:00:00,
2013-07-28 05:32:00,59.0,47.0,30.20,WNW,283,3.0,5.0,64,0.00,,,0.00,,2013-07-28 13:32:00,
2013-07-28 05:43:00,59.0,47.0,30.20,WNW,283,3.0,5.0,64,0.00,,,0.00,,2013-07-28 13:43:00,
2013-07-28 05:53:00,59.0,47.0,30.20,WNW,283,3.0,5.0,64,0.00,,,0.00,,2013-07-28 13:53:00,
2013-07-28 06:00:00,60.0,48.0,30.20,WNW,287,3.0,6.0,65,0.00,,,0.00,,2013-07-28 14:00:00,
2013-07-28 06:43:00,60.0,48.0,30.20,WNW,287,3.0,6.0,65,0.00,,,0.00,,2013-07-28 14:43:00,
2013-07-28 06:53:00,60.0,48.0,30.20,WNW,287,3.0,6.0,65,0.00,,,0.00,,2013-07-28 14:53:00,
2013-07-28 07:33:00,63.0,49.0,30.20,WNW,292,1.0,5.0,61,0.00,,,0.00,,2013-07-28 15:33:00,
2013-07-28 07:43:00,63.0,49.0,30.20,WNW,292,1.0,5.0,61,0.00,,,0.00,,2013-07-28 15:43:00,
2013-07-28 08:00:00,65.0,52.0,30.20,WSW,242,3.0,6.0,62,-99.99,,,0.00,,2013-07-28 16:00:00,
2013-07-28 08:33:00,65.0,52.0,30.20,WSW,242,3.0,6.0,62,-99.99,,,0.00,,2013-07-28 16:33:00,
2013-07-28 08:43:00,65.0,52.0,30.20,WSW,242,3.0,6.0,62,-99.99,,,0.00,,2013-07-28 16:43:00,
2013-07-28 08:52:00,65.0,52.0,30.20,WSW,242,3.0,6.0,62,-99.99,,,0.00,,2013-07-28 16:52:00,
2013-07-28 09:00:00,69.0,53.0,30.20,West,260,5.0,8.0,57,0.00,,,0.00,,2013-07-28 17:00:00,
2013-07-28 09:43:00,69.0,53.0,30.20,West,260,5.0,8.0,57,0.00,,,0.00,,2013-07-28 17:43:00,
2013-07-28 09:53:00,69.0,53.0,30.20,West,260,5.0,8.0,57,0.00,,,0.00,,2013-07-28 17:53:00,
2013-07-28 10:00:00,71.0,53.0,30.20,WSW,244,4.0,11.0,53,0.00,,,0.00,,2013-07-28 18:00:00,
2013-07-28 10:33:00,71.0,53.0,30.20,WSW,244,4.0,11.0,53,0.00,,,0.00,,2013-07-28 18:33:00,
2013-07-28 10:43:00,71.0,53.0,30.20,WSW,244,4.0,11.0,53,0.00,,,0.00,,2013-07-28 18:43:00,
2013-07-28 10:52:00,71.0,53.0,30.20,WSW,244,4.0,11.0,53,0.00,,,0.00,,2013-07-28 18:52:00,
2013-07-28 11:00:00,75.0,53.0,30.19,SW,214,4.0,12.0,47,0.00,,,0.00,,2013-07-28 19:00:00,
2013-07-28 11:33:00,75.0,53.0,30.19,SW,214,4.0,12.0,47,0.00,,,0.00,,2013-07-28 19:33:00,
2013-07-28 11:43:00,75.0,53.0,30.19,SW,214,4.0,12.0,47,0.00,,,0.00,,2013-07-28 19:43:00,
2013-07-28 11:52:00,75.0,53.0,30.19,SW,214,4.0,12.0,47,0.00,,,0.00,,2013-07-28 19:52:00,
2013-07-28 12:00:00,76.0,53.0,30.19,SW,214,5.0,11.0,45,0.00,,,0.00,,2013-07-28 20:00:00,
2013-07-28 12:33:00,76.0,53.0,30.19,SW,214,5.0,11.0,45,0.00,,,0.00,,2013-07-28 20:33:00,
2013-07-28 12:43:00,76.0,53.0,30.19,SW,214,5.0,11.0,45,0.00,,,0.00,,2013-07-28 20:43:00,
2013-07-28 12:53:00,76.0,53.0,30.19,SW,214,5.0,11.0,45,0.00,,,0.00,,2013-07-28 20:53:00,
2013-07-28 13:00:00,78.0,53.0,30.18,SSW,209,6.0,14.0,42,0.00,,,0.00,,2013-07-28 21:00:00,
2013-07-28 13:33:00,78.0,53.0,30.18,SSW,209,6.0,14.0,42,0.00,,,0.00,,2013-07-28 21:33:00,
2013-07-28 13:44:00,78.0,53.0,30.18,SSW,209,6.0,14.0,42,0.00,,,0.00,,2013-07-28 21:44:00,
2013-07-28 13:52:00,78.0,53.0,30.18,SSW,209,6.0,14.0,42,0.00,,,0.00,,2013-07-28 21:52:00,
2013-07-28 14:00:00,79.0,51.0,30.18,SW,224,6.0,14.0,38,0.00,,,0.00,,2013-07-28 22:00:00,
2013-07-28 14:43:00,79.0,51.0,30.18,SW,224,6.0,14.0,38,0.00,,,0.00,,2013-07-28 22:43:00,
2013-07-28 14:52:00,79.0,51.0,30.18,SW,224,6.0,14.0,38,0.00,,,0.00,,2013-07-28 22:52:00,
2013-07-28 15:00:00,80.0,51.0,30.17,SW,218,6.0,15.0,36,0.00,,,0.00,,2013-07-28 23:00:00,
2013-07-28 15:43:00,80.0,51.0,30.17,SW,218,6.0,15.0,36,0.00,,,0.00,,2013-07-28 23:43:00,
2013-07-28 15:53:00,80.0,51.0,30.17,SW,218,6.0,15.0,36,0.00,,,0.00,,2013-07-28 23:53:00,
2013-07-28 16:00:00,79.0,49.0,30.15,SW,236,7.0,17.0,35,0.00,,,0.00,,2013-07-29 00:00:00,
2013-07-28 16:43:00,79.0,49.0,30.15,SW,236,7.0,17.0,35,0.00,,,0.00,,2013-07-29 00:43:00,
2013-07-28 16:52:00,79.0,49.0,30.15,SW,236,7.0,17.0,35,0.00,,,0.00,,2013-07-29 00:52:00,
2013-07-28 17:00:00,81.0,46.0,30.14,SW,226,6.0,19.0,30,0.00,,,0.00,,2013-07-29 01:00:00,
2013-07-28 17:47:00,81.0,46.0,30.14,SW,226,6.0,19.0,30,0.00,,,0.00,,2013-07-29 01:47:00,
2013-07-28 17:59:00,81.0,46.0,30.14,SW,226,6.0,19.0,30,0.00,,,0.00,,2013-07-29 01:59:00,
2013-07-28 18:00:00,80.0,46.0,30.13,SW,233,8.0,19.0,30,0.00,,,0.00,,2013-07-29 02:00:00,
2013-07-28 18:58:00,80.0,46.0,30.13,SW,233,8.0,19.0,30,0.00,,,0.00,,2013-07-29 02:58:00,
2013-07-28 19:00:00,79.0,47.0,30.11,WSW,249,7.0,16.0,33,0.00,,,0.00,,2013-07-29 03:00:00,
2013-07-28 19:37:00,79.0,47.0,30.11,WSW,249,7.0,16.0,33,0.00,,,0.00,,2013-07-29 03:37:00,
2013-07-28 19:49:00,79.0,47.0,30.11,WSW,249,7.0,16.0,33,0.00,,,0.00,,2013-07-29 03:49:00,
2013-07-28 19:58:00,79.0,47.0,30.11,WSW,249,7.0,16.0,33,0.00,,,0.00,,2013-07-29 03:58:00,
2013-07-28 20:00:00,79.0,48.0,30.10,SW,236,6.0,15.0,34,0.00,,,0.00,,2013-07-29 04:00:00,
2013-07-28 20:43:00,79.0,48.0,30.10,SW,236,6.0,15.0,34,0.00,,,0.00,,2013-07-29 04:43:00,
2013-07-28 20:53:00,79.0,48.0,30.10,SW,236,6.0,15.0,34,0.00,,,0.00,,2013-07-29 04:53:00,
2013-07-28 21:00:00,75.0,48.0,30.10,WSW,238,6.0,14.0,39,0.00,,,0.00,,2013-07-29 05:00:00,
2013-07-28 21:32:00,75.0,48.0,30.10,WSW,238,6.0,14.0,39,0.00,,,0.00,,2013-07-29 05:32:00,
2013-07-28 21:43:00,75.0,48.0,30.10,WSW,238,6.0,14.0,39,0.00,,,0.00,,2013-07-29 05:43:00,
2013-07-28 21:53:00,75.0,48.0,30.10,WSW,238,6.0,14.0,39,0.00,,,0.00,,2013-07-29 05:53:00,
2013-07-28 22:00:00,72.0,49.0,30.09,WSW,250,7.0,13.0,44,0.00,,,0.00,,2013-07-29 06:00:00,
2013-07-28 22:43:00,72.0,49.0,30.09,WSW,250,7.0,13.0,44,0.00,,,0.00,,2013-07-29 06:43:00,
2013-07-28 22:52:00,72.0,49.0,30.09,WSW,250,7.0,13.0,44,0.00,,,0.00,,2013-07-29 06:52:00,
2013-07-28 23:00:00,66.0,52.0,30.10,WSW,253,5.0,19.0,61,0.00,,,0.00,,2013-07-29 07:00:00,
2013-07-28 23:43:00,66.0,52.0,30.10,WSW,253,5.0,19.0,61,0.00,,,0.00,,2013-07-29 07:43:00,
2013-07-28 23:53:00,66.0,52.0,30.10,WSW,253,5.0,19.0,61,0.00,,,0.00,,2013-07-29 07:53:00,